UAL3 KORD-LSZH

Flight info

Callsign UAL3
Flight time N/A
Altitude 31000
Route EBAKE DCT WISMO DCT POSTS DCT PADDE DCT SVM Q907 SIKBO DCT OLABA DCT SSENA Q951 RABIK DCT MIILS DCT RIKAL/M083F310 NATS SOVED/N0480F310 DCT INKUR DCT LIPGO DCT NUCHU L607 KONAN DCT KOK DCT RITAX DCT KRH M150 LAMGO T721 RILAX
Aircraft B764/H-SDE3FGHIM3RWXY/LB1

Departure

Time 2026-05-05 21:53
Airport Chicago O'Hare International Airport (KORD)

Arrival

Time N/A
Airport Zürich Airport (LSZH)
Time Latitude Longitude Altitude Speed Heading
2026-05-05 20:56 41.97973 -87.90937 668 ft 0 kts 280°
2026-05-05 21:22 41.97972 -87.90929 667 ft 2 kts 279°
2026-05-05 21:23 41.97973 -87.90908 667 ft 2 kts 252°
2026-05-05 21:23 41.97979 -87.90890 667 ft 2 kts 233°
2026-05-05 21:23 41.97989 -87.90876 667 ft 2 kts 213°
2026-05-05 21:23 41.98003 -87.90867 667 ft 1 kts 194°
2026-05-05 21:24 41.98009 -87.90865 667 ft 1 kts 187°
2026-05-05 21:24 41.98011 -87.90865 667 ft 0 kts 188°
2026-05-05 21:40 41.98003 -87.90867 667 ft 2 kts 188°
2026-05-05 21:40 41.97980 -87.90872 667 ft 4 kts 191°
2026-05-05 21:41 41.97941 -87.90883 667 ft 6 kts 191°
2026-05-05 21:41 41.97891 -87.90895 667 ft 7 kts 190°
2026-05-05 21:41 41.97833 -87.90908 667 ft 9 kts 189°
2026-05-05 21:41 41.97767 -87.90923 667 ft 10 kts 189°
2026-05-05 21:42 41.97692 -87.90939 667 ft 11 kts 188°
2026-05-05 21:42 41.97636 -87.90951 667 ft 0 kts 191°
2026-05-05 21:42 41.97633 -87.90951 667 ft 1 kts 191°
2026-05-05 21:42 41.97619 -87.90959 668 ft 2 kts 211°
2026-05-05 21:43 41.97609 -87.90971 668 ft 1 kts 227°
2026-05-05 21:43 41.97604 -87.90981 668 ft 0 kts 231°
2026-05-05 21:43 41.97584 -87.91026 670 ft 10 kts 245°
2026-05-05 21:43 41.97535 -87.91150 671 ft 17 kts 233°
2026-05-05 21:44 41.97471 -87.91235 671 ft 0 kts 204°
2026-05-05 21:44 41.97455 -87.91240 671 ft 6 kts 185°
2026-05-05 21:44 41.97424 -87.91213 671 ft 0 kts 115°
2026-05-05 21:44 41.97421 -87.91204 671 ft 5 kts 114°
2026-05-05 21:45 41.97431 -87.91071 671 ft 17 kts 75°
2026-05-05 21:45 41.97404 -87.90964 671 ft 20 kts 138°
2026-05-05 21:45 41.97277 -87.90800 671 ft 18 kts 131°
2026-05-05 21:45 41.97222 -87.90646 669 ft 9 kts 97°
2026-05-05 21:46 41.97212 -87.90530 667 ft 13 kts 96°
2026-05-05 21:46 41.97208 -87.90402 667 ft 15 kts 89°
2026-05-05 21:46 41.97205 -87.90247 666 ft 19 kts 91°
2026-05-05 21:46 41.97204 -87.90044 664 ft 23 kts 90°
2026-05-05 21:47 41.97229 -87.89831 661 ft 22 kts 66°
2026-05-05 21:47 41.97266 -87.89735 659 ft 6 kts 59°
2026-05-05 21:47 41.97294 -87.89674 658 ft 8 kts 60°
2026-05-05 21:47 41.97294 -87.89614 658 ft 5 kts 125°
2026-05-05 21:48 41.97256 -87.89568 658 ft 9 kts 140°
2026-05-05 21:48 41.97212 -87.89516 658 ft 6 kts 126°
2026-05-05 21:48 41.97195 -87.89445 658 ft 9 kts 91°
2026-05-05 21:48 41.97194 -87.89325 658 ft 16 kts 90°
2026-05-05 21:49 41.97195 -87.89135 657 ft 24 kts 89°
2026-05-05 21:49 41.97195 -87.88878 657 ft 31 kts 90°
2026-05-05 21:49 41.97195 -87.88604 657 ft 22 kts 90°
2026-05-05 21:49 41.97186 -87.88481 657 ft 12 kts 119°
2026-05-05 21:50 41.97098 -87.88444 658 ft 10 kts 181°
2026-05-05 21:50 41.97040 -87.88444 658 ft 8 kts 180°
2026-05-05 21:50 41.97026 -87.88444 658 ft 3 kts 180°
2026-05-05 21:50 41.96967 -87.88449 658 ft 11 kts 193°
2026-05-05 21:51 41.96912 -87.88498 658 ft 12 kts 244°
2026-05-05 21:51 41.96905 -87.88567 658 ft 0 kts 269°
2026-05-05 21:51 41.96905 -87.88573 658 ft 0 kts 269°
2026-05-05 21:51 41.96905 -87.88627 658 ft 19 kts 270°
2026-05-05 21:52 41.96903 -87.90121 664 ft 136 kts 271°
2026-05-05 21:52 41.96904 -87.91608 782 ft 176 kts 271°
2026-05-05 21:52 41.96938 -87.93394 1012 ft 212 kts 281°
2026-05-05 21:53 41.97613 -87.95268 1579 ft 238 kts 315°
2026-05-05 21:53 41.99041 -87.96389 2371 ft 245 kts 346°
2026-05-05 21:53 42.00753 -87.96355 2969 ft 254 kts 15°
2026-05-05 21:53 42.02272 -87.95110 3543 ft 264 kts 45°
2026-05-05 21:54 42.03167 -87.92946 4119 ft 274 kts 74°
2026-05-05 21:54 42.03520 -87.90418 4677 ft 278 kts 73°
2026-05-05 21:54 42.04033 -87.87920 5296 ft 278 kts 70°
2026-05-05 21:54 42.04635 -87.85451 5857 ft 281 kts 68°
2026-05-05 21:55 42.05295 -87.82993 6411 ft 285 kts 66°
2026-05-05 21:55 42.06010 -87.80465 6926 ft 290 kts 66°
2026-05-05 21:55 42.06744 -87.77938 7428 ft 295 kts 65°
2026-05-05 21:55 42.07512 -87.75335 7908 ft 302 kts 65°
2026-05-05 21:56 42.08300 -87.72685 8353 ft 310 kts 66°
2026-05-05 21:56 42.09098 -87.70010 8883 ft 314 kts 66°
2026-05-05 21:56 42.09922 -87.67251 9365 ft 320 kts 66°
2026-05-05 21:56 42.10748 -87.64483 9862 ft 325 kts 67°
2026-05-05 21:57 42.11600 -87.61631 10277 ft 335 kts 66°
2026-05-05 21:57 42.12499 -87.58621 10287 ft 359 kts 66°
2026-05-05 21:57 42.13466 -87.55382 10375 ft 383 kts 66°
2026-05-05 21:57 42.14481 -87.51973 10456 ft 408 kts 67°
2026-05-05 21:58 42.15545 -87.48395 11028 ft 418 kts 66°
2026-05-05 21:58 42.16632 -87.44734 11837 ft 422 kts 66°
2026-05-05 21:58 42.17728 -87.41037 12505 ft 429 kts 66°
2026-05-05 21:58 42.18830 -87.37309 13187 ft 435 kts 66°
2026-05-05 21:59 42.19952 -87.33519 13938 ft 439 kts 67°
2026-05-05 21:59 42.21091 -87.29665 14492 ft 448 kts 66°
2026-05-05 21:59 42.22232 -87.25791 15300 ft 450 kts 66°
2026-05-05 21:59 42.23399 -87.21832 15954 ft 455 kts 66°
2026-05-05 22:00 42.24565 -87.17866 16535 ft 464 kts 66°
2026-05-05 22:00 42.25764 -87.13776 17273 ft 467 kts 66°
2026-05-05 22:00 42.26939 -87.09692 17858 ft 473 kts 69°
2026-05-05 22:00 42.27772 -87.05435 18490 ft 480 kts 79°
2026-05-05 22:01 42.28130 -87.00876 19011 ft 488 kts 88°
2026-05-05 22:01 42.28319 -86.96340 19754 ft 489 kts 87°
2026-05-05 22:01 42.28522 -86.91748 20279 ft 496 kts 88°
2026-05-05 22:01 42.28716 -86.87129 20901 ft 500 kts 88°
2026-05-05 22:02 42.28906 -86.82400 21527 ft 503 kts 89°
2026-05-05 22:02 42.29093 -86.77675 22040 ft 509 kts 89°
2026-05-05 22:02 42.29281 -86.72938 22512 ft 514 kts 89°
2026-05-05 22:02 42.29468 -86.68107 23088 ft 516 kts 89°
2026-05-05 22:03 42.29657 -86.63243 23571 ft 520 kts 90°
2026-05-05 22:03 42.29835 -86.58367 24034 ft 525 kts 89°
2026-05-05 22:03 42.30018 -86.53448 24367 ft 531 kts 89°
2026-05-05 22:03 42.30203 -86.48480 24934 ft 533 kts 89°
2026-05-05 22:04 42.30384 -86.43459 25365 ft 537 kts 89°
2026-05-05 22:04 42.30564 -86.38480 25805 ft 540 kts 89°
2026-05-05 22:04 42.30746 -86.33373 26156 ft 544 kts 90°
2026-05-05 22:04 42.30924 -86.28329 26600 ft 546 kts 90°
2026-05-05 22:05 42.31102 -86.23158 26899 ft 550 kts 90°
2026-05-05 22:05 42.31278 -86.18022 27248 ft 553 kts 89°
2026-05-05 22:05 42.31453 -86.12833 27564 ft 556 kts 90°
2026-05-05 22:05 42.31583 -86.07590 27803 ft 558 kts 94°
2026-05-05 22:06 42.31498 -86.02382 28082 ft 560 kts 94°
2026-05-05 22:06 42.31444 -85.97147 28368 ft 562 kts 94°
2026-05-05 22:06 42.31377 -85.91876 28751 ft 561 kts 94°
2026-05-05 22:06 42.31313 -85.86660 29105 ft 561 kts 94°
2026-05-05 22:07 42.31245 -85.81358 29420 ft 561 kts 94°
2026-05-05 22:07 42.31177 -85.76145 29729 ft 562 kts 94°
2026-05-05 22:07 42.31108 -85.70850 30052 ft 561 kts 94°
2026-05-05 22:07 42.31034 -85.65594 30274 ft 563 kts 94°
2026-05-05 22:08 42.30960 -85.60322 30553 ft 562 kts 93°
2026-05-05 22:08 42.30883 -85.55072 30759 ft 564 kts 93°
2026-05-05 22:08 42.30802 -85.49839 30898 ft 562 kts 93°
2026-05-05 22:09 42.30638 -85.39329 30876 ft 561 kts 93°
2026-05-05 22:09 42.30515 -85.31797 30856 ft 560 kts 94°
2026-05-05 22:10 42.30334 -85.21330 30859 ft 558 kts 94°
2026-05-05 22:10 42.30145 -85.10899 30857 ft 558 kts 94°
2026-05-05 22:11 42.29933 -85.00454 30868 ft 559 kts 94°
2026-05-05 22:11 42.29687 -84.90008 30862 ft 558 kts 94°
2026-05-05 22:12 42.29432 -84.79623 30866 ft 557 kts 94°
2026-05-05 22:12 42.29165 -84.69176 30863 ft 559 kts 93°
2026-05-05 22:13 42.28891 -84.58750 30855 ft 557 kts 94°
2026-05-05 22:13 42.28742 -84.48312 30857 ft 557 kts 87°
2026-05-05 22:14 42.29961 -84.38017 30868 ft 560 kts 79°
2026-05-05 22:14 42.31403 -84.27765 30838 ft 559 kts 80°
2026-05-05 22:15 42.32849 -84.17482 30835 ft 559 kts 79°
2026-05-05 22:15 42.34291 -84.07211 30848 ft 559 kts 79°
2026-05-05 22:16 42.35728 -83.96897 30848 ft 558 kts 80°
2026-05-05 22:16 42.37146 -83.86653 30848 ft 558 kts 80°
2026-05-05 22:17 42.38565 -83.76313 30850 ft 560 kts 79°
2026-05-05 22:17 42.39973 -83.65996 30850 ft 561 kts 79°
2026-05-05 22:18 42.41866 -83.55832 30863 ft 559 kts 68°
2026-05-05 22:18 42.44588 -83.45975 30859 ft 561 kts 68°
2026-05-05 22:19 42.47297 -83.36099 30868 ft 559 kts 69°
2026-05-05 22:19 42.49999 -83.26232 30853 ft 561 kts 69°
2026-05-05 22:20 42.52697 -83.16345 30845 ft 561 kts 69°
2026-05-05 22:20 42.55377 -83.06467 30851 ft 560 kts 68°
2026-05-05 22:21 42.58045 -82.96622 30838 ft 562 kts 69°
2026-05-05 22:21 42.60721 -82.86674 30836 ft 560 kts 69°
2026-05-05 22:22 42.63382 -82.76765 30822 ft 561 kts 69°
2026-05-05 22:22 42.66022 -82.66895 30838 ft 561 kts 69°
2026-05-05 22:23 42.68686 -82.56890 30851 ft 561 kts 69°
2026-05-05 22:23 42.70967 -82.48284 30859 ft 561 kts 69°
2026-05-05 22:24 42.73600 -82.38319 30851 ft 560 kts 69°
2026-05-05 22:24 42.76203 -82.28425 30828 ft 557 kts 70°
2026-05-05 22:25 42.78799 -82.18514 30826 ft 557 kts 70°
2026-05-05 22:25 42.81390 -82.08577 30817 ft 559 kts 70°
2026-05-05 22:26 42.83962 -81.98684 30818 ft 558 kts 70°
2026-05-05 22:26 42.86523 -81.88783 30824 ft 556 kts 70°
2026-05-05 22:27 42.89094 -81.78806 30828 ft 557 kts 70°
2026-05-05 22:27 42.91647 -81.68854 30831 ft 558 kts 70°
2026-05-05 22:28 42.94183 -81.58926 30822 ft 558 kts 70°
2026-05-05 22:28 42.96713 -81.48983 30839 ft 558 kts 70°
2026-05-05 22:29 42.99239 -81.39020 30843 ft 559 kts 70°
2026-05-05 22:29 43.01770 -81.28981 30822 ft 558 kts 71°
2026-05-05 22:30 43.04278 -81.19001 30836 ft 558 kts 71°
2026-05-05 22:30 43.06865 -81.09025 30834 ft 559 kts 66°
2026-05-05 22:31 43.10160 -80.99421 30832 ft 561 kts 64°
2026-05-05 22:31 43.13487 -80.89776 30822 ft 562 kts 63°
2026-05-05 22:32 43.16808 -80.80120 30825 ft 562 kts 64°
2026-05-05 22:32 43.20107 -80.70493 30817 ft 563 kts 64°
2026-05-05 22:33 43.23428 -80.60776 30812 ft 562 kts 63°
2026-05-05 22:33 43.26712 -80.51133 30816 ft 562 kts 64°
2026-05-05 22:34 43.29991 -80.41467 30823 ft 562 kts 63°
2026-05-05 22:34 43.33276 -80.31749 30818 ft 563 kts 64°
2026-05-05 22:35 43.36563 -80.21993 30819 ft 563 kts 65°
2026-05-05 22:35 43.39840 -80.12229 30818 ft 564 kts 64°
2026-05-05 22:36 43.43096 -80.02490 30821 ft 564 kts 65°
2026-05-05 22:36 43.46368 -79.92670 30825 ft 565 kts 64°
2026-05-05 22:37 43.49620 -79.82875 30826 ft 567 kts 64°
2026-05-05 22:37 43.52875 -79.73035 30824 ft 565 kts 65°
2026-05-05 22:38 43.56119 -79.63197 30826 ft 566 kts 64°
2026-05-05 22:38 43.59338 -79.53390 30838 ft 566 kts 64°
2026-05-05 22:39 43.62576 -79.43495 30836 ft 566 kts 65°
2026-05-05 22:39 43.65778 -79.33579 30834 ft 567 kts 68°
2026-05-05 22:40 43.68574 -79.23469 30816 ft 567 kts 69°
2026-05-05 22:40 43.71372 -79.13331 30820 ft 566 kts 69°
2026-05-05 22:41 43.74169 -79.03181 30824 ft 567 kts 69°
2026-05-05 22:41 43.76952 -78.93057 30834 ft 568 kts 69°
2026-05-05 22:42 43.79739 -78.82880 30835 ft 565 kts 69°
2026-05-05 22:42 43.82500 -78.72746 30850 ft 566 kts 69°
2026-05-05 22:43 43.85271 -78.62543 30835 ft 566 kts 69°
2026-05-05 22:43 43.88014 -78.52396 30830 ft 563 kts 69°
2026-05-05 22:44 43.90757 -78.42212 30835 ft 565 kts 69°
2026-05-05 22:44 43.93483 -78.32037 30819 ft 565 kts 69°
2026-05-05 22:45 43.96204 -78.21851 30805 ft 565 kts 70°
2026-05-05 22:45 43.98904 -78.11676 30794 ft 566 kts 69°
2026-05-05 22:46 44.01620 -78.01420 30808 ft 566 kts 70°
2026-05-05 22:46 44.04312 -77.91209 30801 ft 564 kts 69°
2026-05-05 22:47 44.06975 -77.81058 30807 ft 564 kts 69°
2026-05-05 22:47 44.09657 -77.70789 30813 ft 565 kts 69°
2026-05-05 22:48 44.12323 -77.60551 30808 ft 567 kts 70°
2026-05-05 22:48 44.14989 -77.50265 30813 ft 567 kts 70°
2026-05-05 22:49 44.17639 -77.39968 30813 ft 567 kts 69°
2026-05-05 22:49 44.20301 -77.29614 30801 ft 568 kts 70°
2026-05-05 22:50 44.22933 -77.19314 30797 ft 567 kts 70°
2026-05-05 22:50 44.25556 -77.09007 30798 ft 567 kts 70°
2026-05-05 22:51 44.28195 -76.98601 30792 ft 569 kts 69°
2026-05-05 22:51 44.30799 -76.88277 30795 ft 568 kts 70°
2026-05-05 22:52 44.33402 -76.77919 30800 ft 568 kts 71°
2026-05-05 22:52 44.36005 -76.67510 30804 ft 568 kts 70°
2026-05-05 22:53 44.38585 -76.57136 30820 ft 569 kts 70°
2026-05-05 22:53 44.41174 -76.46684 30809 ft 567 kts 71°
2026-05-05 22:54 44.43731 -76.36309 30811 ft 568 kts 70°
2026-05-05 22:54 44.46286 -76.25899 30800 ft 567 kts 71°
2026-05-05 22:55 44.49033 -76.15620 30811 ft 567 kts 66°
2026-05-05 22:55 44.52133 -76.05525 30798 ft 567 kts 67°
2026-05-05 22:56 44.55209 -75.95375 30788 ft 567 kts 67°
2026-05-05 22:56 44.58273 -75.85194 30781 ft 565 kts 67°
2026-05-05 22:57 44.61304 -75.75077 30786 ft 564 kts 66°
2026-05-05 22:57 44.64325 -75.64960 30794 ft 566 kts 67°
2026-05-05 22:58 44.67341 -75.54817 30785 ft 563 kts 67°
2026-05-05 22:58 44.70342 -75.44684 30781 ft 565 kts 66°
2026-05-05 22:59 44.73347 -75.34491 30785 ft 563 kts 67°
2026-05-05 22:59 44.76328 -75.24347 30762 ft 563 kts 67°
2026-05-05 23:00 44.80783 -75.09109 30768 ft 561 kts 68°
2026-05-05 23:00 44.83726 -74.98985 30769 ft 561 kts 68°
2026-05-05 23:01 44.86655 -74.88866 30768 ft 561 kts 67°
2026-05-05 23:01 44.89572 -74.78750 30764 ft 560 kts 67°
2026-05-05 23:02 44.92230 -74.68471 30778 ft 560 kts 73°
2026-05-05 23:02 44.94538 -74.58001 30761 ft 561 kts 73°
2026-05-05 23:03 44.96829 -74.47496 30759 ft 559 kts 73°
2026-05-05 23:03 44.99095 -74.37007 30759 ft 561 kts 73°
2026-05-05 23:04 45.01105 -74.26462 30740 ft 556 kts 76°
2026-05-05 23:04 45.03062 -74.15911 30742 ft 557 kts 76°
2026-05-05 23:05 45.05011 -74.05363 30741 ft 559 kts 76°
2026-05-05 23:05 45.06960 -73.94762 30742 ft 558 kts 76°
2026-05-05 23:06 45.08854 -73.84212 30746 ft 556 kts 76°
2026-05-05 23:06 45.10717 -73.73649 30758 ft 557 kts 76°
2026-05-05 23:07 45.12576 -73.63046 30750 ft 555 kts 76°
2026-05-05 23:07 45.14415 -73.52483 30759 ft 555 kts 76°
2026-05-05 23:08 45.16250 -73.41894 30750 ft 556 kts 76°
2026-05-05 23:08 45.18082 -73.31247 30745 ft 554 kts 77°
2026-05-05 23:09 45.19883 -73.20718 30744 ft 555 kts 77°
2026-05-05 23:09 45.21687 -73.10117 30738 ft 555 kts 77°
2026-05-05 23:10 45.23487 -72.99461 30742 ft 556 kts 76°
2026-05-05 23:10 45.25269 -72.88877 30742 ft 556 kts 77°
2026-05-05 23:11 45.27040 -72.78256 30737 ft 555 kts 77°
2026-05-05 23:11 45.28809 -72.67596 30731 ft 553 kts 76°
2026-05-05 23:12 45.31062 -72.57319 30751 ft 552 kts 64°
2026-05-05 23:12 45.34217 -72.47330 30739 ft 554 kts 64°
2026-05-05 23:13 45.37329 -72.37412 30738 ft 553 kts 65°
2026-05-05 23:13 45.40456 -72.27402 30718 ft 553 kts 64°
2026-05-05 23:14 45.43548 -72.17470 30732 ft 552 kts 65°
2026-05-05 23:14 45.46626 -72.07546 30746 ft 550 kts 65°
2026-05-05 23:15 45.49719 -71.97540 30727 ft 552 kts 65°
2026-05-05 23:15 45.52781 -71.87583 30723 ft 550 kts 65°
2026-05-05 23:16 45.55839 -71.77603 30721 ft 551 kts 65°
2026-05-05 23:16 45.58894 -71.67607 30718 ft 553 kts 65°
2026-05-05 23:17 45.61935 -71.57597 30720 ft 552 kts 65°
2026-05-05 23:17 45.64963 -71.47601 30725 ft 551 kts 65°
2026-05-05 23:18 45.67976 -71.37612 30729 ft 549 kts 65°
2026-05-05 23:18 45.70995 -71.27567 30716 ft 551 kts 65°
2026-05-05 23:19 45.73997 -71.17543 30713 ft 549 kts 65°
2026-05-05 23:19 45.76983 -71.07523 30717 ft 550 kts 66°
2026-05-05 23:20 45.79982 -70.97424 30715 ft 551 kts 66°
2026-05-05 23:20 45.82953 -70.87371 30726 ft 550 kts 65°
2026-05-05 23:21 45.85895 -70.77383 30729 ft 547 kts 66°
2026-05-05 23:21 45.88835 -70.67364 30723 ft 546 kts 66°
2026-05-05 23:22 45.91759 -70.57354 30729 ft 544 kts 66°
2026-05-05 23:22 45.94677 -70.47323 30725 ft 543 kts 66°
2026-05-05 23:23 45.97549 -70.37417 30726 ft 541 kts 66°
2026-05-05 23:23 46.00428 -70.27437 30713 ft 538 kts 67°
2026-05-05 23:24 46.03273 -70.17540 30714 ft 539 kts 68°
2026-05-05 23:24 46.06119 -70.07599 30705 ft 536 kts 68°
2026-05-05 23:25 46.08915 -69.97794 30712 ft 533 kts 68°
2026-05-05 23:25 46.11718 -69.87923 30707 ft 535 kts 68°
2026-05-05 23:26 46.14537 -69.77959 30709 ft 536 kts 68°
2026-05-05 23:26 46.17333 -69.68034 30706 ft 536 kts 68°
2026-05-05 23:27 46.20103 -69.58163 30705 ft 536 kts 68°
2026-05-05 23:27 46.22878 -69.48227 30705 ft 536 kts 68°
2026-05-05 23:28 46.25654 -69.38252 30704 ft 536 kts 69°
2026-05-05 23:28 46.28413 -69.28293 30677 ft 534 kts 69°
2026-05-05 23:29 46.31159 -69.18345 30689 ft 535 kts 69°
2026-05-05 23:29 46.33884 -69.08425 30689 ft 533 kts 69°
2026-05-05 23:30 46.36151 -69.00147 30695 ft 532 kts 70°
2026-05-05 23:30 46.39312 -68.88553 30696 ft 532 kts 70°
2026-05-05 23:31 46.42004 -68.78629 30716 ft 534 kts 69°
2026-05-05 23:31 46.44709 -68.68621 30704 ft 533 kts 69°
2026-05-05 23:32 46.47387 -68.58664 30711 ft 534 kts 70°
2026-05-05 23:32 46.50083 -68.48609 30715 ft 536 kts 70°
2026-05-05 23:33 46.52764 -68.38566 30709 ft 537 kts 69°
2026-05-05 23:33 46.55443 -68.28486 30695 ft 538 kts 70°
2026-05-05 23:34 46.58115 -68.18379 30705 ft 538 kts 70°
2026-05-05 23:34 46.60783 -68.08257 30709 ft 538 kts 70°
2026-05-05 23:35 46.63451 -67.98083 30710 ft 540 kts 70°
2026-05-05 23:35 46.66104 -67.87927 30708 ft 538 kts 70°
2026-05-05 23:36 46.68735 -67.77805 30711 ft 539 kts 70°
2026-05-05 23:36 46.71371 -67.67611 30709 ft 540 kts 70°
2026-05-05 23:37 46.74015 -67.57364 30703 ft 542 kts 70°
2026-05-05 23:37 46.76650 -67.47106 30713 ft 538 kts 69°
2026-05-05 23:38 46.79250 -67.36914 30717 ft 538 kts 70°
2026-05-05 23:38 46.81845 -67.26712 30717 ft 539 kts 71°
2026-05-05 23:39 46.84432 -67.16497 30720 ft 538 kts 70°
2026-05-05 23:39 46.87064 -67.06345 30716 ft 538 kts 65°
2026-05-05 23:40 46.91009 -66.97128 30732 ft 538 kts 51°
2026-05-05 23:40 46.95431 -66.88326 30720 ft 536 kts 52°
2026-05-05 23:41 46.99755 -66.79559 30722 ft 537 kts 52°
2026-05-05 23:41 47.04106 -66.70663 30716 ft 539 kts 53°
2026-05-05 23:42 47.08447 -66.61736 30718 ft 537 kts 52°
2026-05-05 23:42 47.12759 -66.52833 30703 ft 536 kts 52°
2026-05-05 23:43 47.17050 -66.43947 30686 ft 539 kts 52°
2026-05-05 23:43 47.21367 -66.34980 30683 ft 538 kts 53°
2026-05-05 23:44 47.25663 -66.26025 30678 ft 539 kts 53°
2026-05-05 23:44 47.29977 -66.17004 30681 ft 538 kts 53°
2026-05-05 23:45 47.34261 -66.08021 30691 ft 539 kts 53°
2026-05-05 23:45 47.38540 -65.99007 30682 ft 538 kts 53°
2026-05-05 23:46 47.42823 -65.89964 30693 ft 536 kts 53°
2026-05-05 23:46 47.47076 -65.80954 30692 ft 538 kts 53°
2026-05-05 23:47 47.51315 -65.71937 30687 ft 537 kts 53°
2026-05-05 23:47 47.55570 -65.62865 30693 ft 536 kts 53°
2026-05-05 23:48 47.59781 -65.53851 30692 ft 536 kts 53°
2026-05-05 23:48 47.63986 -65.44824 30686 ft 532 kts 53°
2026-05-05 23:49 47.68172 -65.35808 30691 ft 533 kts 53°
2026-05-05 23:49 47.72352 -65.26777 30681 ft 531 kts 54°
2026-05-05 23:50 47.76499 -65.17782 30681 ft 529 kts 54°
2026-05-05 23:50 47.80629 -65.08795 30679 ft 526 kts 54°
2026-05-05 23:51 47.84739 -64.99830 30682 ft 527 kts 54°
2026-05-05 23:51 47.88843 -64.90842 30686 ft 526 kts 54°
2026-05-05 23:52 47.92950 -64.81819 30682 ft 527 kts 54°
2026-05-05 23:52 47.97033 -64.72815 30687 ft 525 kts 53°
2026-05-05 23:53 48.01086 -64.63852 30701 ft 525 kts 54°
2026-05-05 23:53 48.05172 -64.54787 30727 ft 526 kts 53°
2026-05-05 23:54 48.09237 -64.45734 30727 ft 530 kts 53°
2026-05-05 23:54 48.13326 -64.36604 30701 ft 530 kts 53°
2026-05-05 23:55 48.17412 -64.27444 30711 ft 529 kts 54°
2026-05-05 23:55 48.21469 -64.18319 30697 ft 531 kts 54°
2026-05-05 23:56 48.25542 -64.09129 30702 ft 531 kts 54°
2026-05-05 23:56 48.29615 -63.99910 30691 ft 534 kts 54°
2026-05-05 23:57 48.33719 -63.90590 30697 ft 535 kts 54°
2026-05-05 23:57 48.37790 -63.81311 30695 ft 537 kts 54°
2026-05-05 23:58 48.41885 -63.71939 30703 ft 539 kts 54°
2026-05-05 23:58 48.46009 -63.62470 30680 ft 543 kts 54°
2026-05-05 23:59 48.50134 -63.52973 30707 ft 544 kts 55°
2026-05-05 23:59 48.54246 -63.43459 30713 ft 544 kts 54°
2026-05-06 00:00 48.58349 -63.33941 30713 ft 544 kts 55°
2026-05-06 00:00 48.62454 -63.24387 30686 ft 546 kts 55°
2026-05-06 00:01 48.66572 -63.14762 30708 ft 548 kts 54°
2026-05-06 00:01 48.70683 -63.05121 30699 ft 550 kts 55°
2026-05-06 00:02 48.74830 -62.95363 30708 ft 551 kts 54°
2026-05-06 00:02 48.78951 -62.85627 30718 ft 550 kts 54°
2026-05-06 00:03 48.83054 -62.75906 30732 ft 550 kts 55°
2026-05-06 00:03 48.87142 -62.66175 30715 ft 551 kts 54°
2026-05-06 00:04 48.91235 -62.56397 30719 ft 548 kts 54°
2026-05-06 00:04 48.95285 -62.46692 30738 ft 549 kts 54°
2026-05-06 00:05 49.01385 -62.32012 30724 ft 547 kts 54°
2026-05-06 00:06 49.05429 -62.22230 30726 ft 546 kts 54°
2026-05-06 00:06 49.09441 -62.12489 30722 ft 547 kts 54°
2026-05-06 00:07 49.13466 -62.02683 30721 ft 546 kts 54°
2026-05-06 00:07 49.17468 -61.92901 30724 ft 544 kts 54°
2026-05-06 00:08 49.21472 -61.83073 30732 ft 545 kts 54°
2026-05-06 00:08 49.25438 -61.73298 30739 ft 543 kts 55°
2026-05-06 00:09 49.29406 -61.63485 30740 ft 543 kts 55°
2026-05-06 00:09 49.33344 -61.53715 30750 ft 543 kts 55°
2026-05-06 00:10 49.37295 -61.43870 30761 ft 543 kts 55°
2026-05-06 00:10 49.41213 -61.34075 30747 ft 544 kts 56°
2026-05-06 00:11 49.45158 -61.24173 30739 ft 546 kts 56°
2026-05-06 00:11 49.49121 -61.14194 30754 ft 545 kts 56°
2026-05-06 00:12 49.53036 -61.04292 30760 ft 545 kts 55°
2026-05-06 00:12 49.56941 -60.94382 30762 ft 545 kts 55°
2026-05-06 00:13 49.60874 -60.84360 30756 ft 548 kts 56°
2026-05-06 00:13 49.64796 -60.74328 30760 ft 548 kts 55°
2026-05-06 00:14 49.68709 -60.64278 30754 ft 548 kts 55°
2026-05-06 00:14 49.72592 -60.54274 30751 ft 549 kts 54°
2026-05-06 00:15 49.76510 -60.44141 30762 ft 550 kts 55°
2026-05-06 00:15 49.80417 -60.33988 30763 ft 549 kts 56°
2026-05-06 00:16 49.84285 -60.23905 30761 ft 549 kts 56°
2026-05-06 00:16 49.88151 -60.13786 30751 ft 550 kts 56°
2026-05-06 00:17 49.92034 -60.03582 30762 ft 550 kts 55°
2026-05-06 00:17 49.95904 -59.93376 30775 ft 549 kts 55°
2026-05-06 00:18 49.99742 -59.83212 30790 ft 548 kts 55°
2026-05-06 00:18 50.03560 -59.73064 30798 ft 549 kts 55°
2026-05-06 00:19 50.07393 -59.62829 30791 ft 545 kts 55°
2026-05-06 00:19 50.11194 -59.52644 30792 ft 547 kts 55°
2026-05-06 00:20 50.14996 -59.42416 30796 ft 548 kts 55°
2026-05-06 00:20 50.18767 -59.32228 30796 ft 545 kts 56°
2026-05-06 00:21 50.22555 -59.21963 30811 ft 548 kts 56°
2026-05-06 00:21 50.26320 -59.11713 30809 ft 548 kts 56°
2026-05-06 00:22 50.30093 -59.01397 30813 ft 546 kts 56°
2026-05-06 00:22 50.33831 -58.91137 30821 ft 545 kts 56°
2026-05-06 00:23 50.37557 -58.80875 30821 ft 546 kts 56°
2026-05-06 00:23 50.41272 -58.70597 30813 ft 545 kts 56°
2026-05-06 00:24 50.44989 -58.60272 30824 ft 545 kts 56°
2026-05-06 00:24 50.48687 -58.49965 30820 ft 545 kts 56°
2026-05-06 00:25 50.52387 -58.39606 30823 ft 545 kts 56°
2026-05-06 00:25 50.56074 -58.29237 30822 ft 546 kts 56°
2026-05-06 00:26 50.59745 -58.18870 30825 ft 543 kts 56°
2026-05-06 00:26 50.63408 -58.08496 30819 ft 544 kts 56°
2026-05-06 00:27 50.67048 -57.98136 30817 ft 545 kts 56°
2026-05-06 00:27 50.70693 -57.87722 30816 ft 543 kts 56°
2026-05-06 00:28 50.74309 -57.77346 30830 ft 541 kts 56°
2026-05-06 00:28 50.77908 -57.66978 30827 ft 541 kts 56°
2026-05-06 00:29 50.81501 -57.56583 30829 ft 539 kts 56°
2026-05-06 00:29 50.85065 -57.46232 30826 ft 539 kts 56°